P/2018 C1 ( Lemmon-Read )

Japanese version
Home page
Updated on June 25, 2018

---------------------------------------------------------------------

* Profile

Discovery Date February 4 and 9, 2018
Magnitude 19.1 mag, 19.1 mag
Discoverer Mt. Lemmon Survey, Mike T. Read (Spacewatch, Kitt Peak)

* Pictures

* Orbital Elements

Epoch 2018 Feb. 11.0 TT = JDT 2458160.5
T 2018 Feb. 25.54894 TT                                 MPCW
q   2.5957409            (2000.0)            P               Q
n   0.07486311     Peri.  234.32357     -0.81362048     -0.57447029
a   5.5755899      Node   270.44998     +0.55814793     -0.72869728
e   0.5344455      Incl.    5.13351     +0.16276548     -0.37280579
P  13.17
From 114 observations 2018 Jan. 16-May 25, mean residual 0".5.

* Magnitudes Graph

        m1 = 13.5 + 5 log d + 10.0 log r

---------------------------------------------------------------------

The orbital elements are published on M.P.E.C. 2018-K95.
The magnitudes graphs are made with Comet for Windows.

---------------------------------------------------------------------

Copyright(C) Seiichi Yoshida (comet@aerith.net). All rights reserved.